Regional Weather Roundup
Issued by NWS Charleston, WV

Home | Current Version | Previous Version | Text Only | Print | Product List | Glossary Off
Versions: 1 2 3 4 5 6 7 8 9 10 11 12 13 14 15 16 17 18 19 20 21 22 23 24 25 26 27 28 29 30 31 32 33 34 35 36 37 38 39 40 41 42 43 44 45 46 47 48 49 50

000
ASUS41 KRLX 161310
RWRRLX
West Virginia Regional Weather Roundup
National Weather Service Charleston WV
800 AM EST MON JAN 16 2017

Note: "fair" indicates few or no clouds below 12,000 feet with no
significant weather and/or obstructions to visibility.

WVZ003-161400-
Northern Panhandle of West Virginia

CITY           SKY/WX    TMP DP  RH WIND       PRES   REMARKS
WHEELING       CLOUDY    29  21  72 E5        30.32S
$$

WVZ009-161400-
Northwest West Virginia

CITY           SKY/WX    TMP DP  RH WIND       PRES   REMARKS
PARKERSBURG    CLOUDY    36  32  85 CALM      30.34F FOG
$$

WVZ006-161400-
Western West Virginia

CITY           SKY/WX    TMP DP  RH WIND       PRES   REMARKS
HUNTINGTON     FOG       40  38  93 CALM      30.30S VSB 1/4
$$

WVZ015-161400-
West Central West Virginia

CITY           SKY/WX    TMP DP  RH WIND       PRES   REMARKS
CHARLESTON     CLOUDY    41  39  93 CALM      30.30R FOG
$$

WVZ022-031-161400-
North Central West Virginia

CITY           SKY/WX    TMP DP  RH WIND       PRES   REMARKS
CLARKSBURG     CLOUDY    33  30  88 NE6       30.32R
MORGANTOWN     CLOUDY    31  27  85 CALM      30.33R
$$

WVZ025-035-042-045-161400-
Southern West Virginia

CITY           SKY/WX    TMP DP  RH WIND       PRES   REMARKS
BECKLEY        FOG       47  46  97 SE6       30.29S VSB 3/4
LOGAN          CLOUDY    45  45 100 CALM      30.28R FOG
BLUEFIELD      FOG       45  44  97 CALM      30.31R VSB 1
LEWISBURG      CLOUDY    42  42  99 CALM      30.32S FOG
$$

WVZ047-161400-
Northern Mountains of West Virginia

CITY           SKY/WX    TMP DP  RH WIND       PRES   REMARKS
ELKINS         CLOUDY    38  35  89 W3        30.31F FOG
$$

WVZ052-161400-
Eastern Panhandle of West Virginia

CITY           SKY/WX    TMP DP  RH WIND       PRES   REMARKS
MARTINSBURG    CLOUDY    33  24  69 N5        30.43R
PETERSBURG     CLOUDY    38  32  79 CALM      30.39S
$$



USA.gov is the U.S. government's official web portal to all federal, state and local government web resources and services.